Regional Weather Roundup
Issued by NWS

Home | Current Version | Previous Version | Text Only | Print | Product List | Glossary Off
Versions: 1 2 3 4 5 6 7 8 9 10 11 12 13 14 15 16 17 18 19 20 21 22 23 24 25 26 27 28 29 30 31 32 33 34 35 36 37 38 39 40 41 42 43 44 45 46 47 48 49 50

000
ASUS43 KLOT 252108
RWRIL

ILLINOIS REGIONAL WEATHER ROUNDUP
NATIONAL WEATHER SERVICE CHICAGO/ROMEOVILLE IL
400 PM CDT SUN SEP 25 2016

NOTE: "FAIR" INDICATES FEW OR NO CLOUDS BELOW 12,000 FEET WITH NO
SIGNIFICANT WEATHER AND/OR OBSTRUCTIONS TO VISIBILITY.

* THESE STATIONS ARE NOT UNDER NWS QUALITY CONTROL. THEY ALSO MAY NOT
  REPORT WEATHER SUCH AS PRECIPITATION OR FOG.

ILZ001-002-007-009-015-016-024-252200-
NORTHWEST ILLINOIS

CITY           SKY/WX    TMP DP  RH WIND       PRES   REMARKS
MOLINE         MOSUNNY   82  66  58 W17       29.93S HX  84
STERLING*      SUNNY     85  68  56 W17G24    29.90F HX  88
SAVANNA*       MOSUNNY   83  68  60 W10G18    29.90S HX  85
$$

ILZ003-004-008-010-011-017-018-252200-
NORTH CENTRAL ILLINOIS

CITY           SKY/WX    TMP DP  RH WIND       PRES   REMARKS
ROCKFORD       MOSUNNY   84  69  60 SW12      29.90F HX  88
FREEPORT*      PTSUNNY   82  68  62 W16G23    29.91F HX  84
ROCHELLE*      CLOUDY    76  69  79 W15       29.92R
DE KALB*       CLOUDY    84  68  59 SW15G24   29.90F HX  87
$$

ILZ005-006-012>014-019>023-252200-
NORTHEAST ILLINOIS

CITY           SKY/WX    TMP DP  RH WIND       PRES   REMARKS
CHICAGO-OHARE  CLOUDY    85  67  54 S15       29.90F HX  87
CHICAGO-MIDWAY PTSUNNY   83  70  64 E8        29.91F HX  87
AURORA         MOSUNNY   88  66  48 SW17G23   29.90F HX  90
LANSING*       PTSUNNY   84  69  61 S14       29.94F HX  88
JOLIET*        CLOUDY    83  68  60 S7        29.92F HX  86
WAUKEGAN       SUNNY     76  65  68 SE13      29.89F
DUPAGE AIRPORT SUNNY     85  68  56 S13       29.89F HX  88
KANKAKEE*      MOSUNNY   77  72  85 E5        29.95F
WHEELING       SUNNY     85  66  53 S18       29.90F HX  87
MORRIS*        PTSUNNY   82  66  57 S8G16     29.91F HX  84
ROMEOVILLE*    PTSUNNY   82  71  68 S7        29.92F HX  87
NORTHERLY ISL    N/A     80  68  66 S2          N/A  HX  83
$$

LMZ740>746-252200-
SOUTHERN LAKE MICHIGAN

STATION/POSITION SKY/WX   TEMP    WIND        PRES    VSBY  WAVE
                          AIR SEA DIR/SP/G                  HT/PER
                          (F)     (DEG/KT/KT) (MB)    (MI)  (FT/S)
SOUTHERN BUOY              73 72  130/ 16/ 19 1012.8F         3/ 5
WILMETTE HARBOR            71 65  150/ 12/ 16   N/A           2/ 4
HARRISON CRIB              75     140/ 16/ 16   N/A
BURNHAM HARBOR             82     150/  3/  8   N/A
CALUMET HARBOR             83     130/  5/  8 1013.8F
BURNS HARBOR               85     170/  7/ 14 1014.9F
MICHIGAN CITY              82     110/  8/  9   N/A
MICHIGAN CITY 6N           77 71  140/  6/  8   N/A           1
ST. JOSEPH                 76 68  140/ 10/ 14 1014.1F         1
$$

ILZ025>027-034>036-040-047-049-050-058-095>099-252200-
WEST-CENTRAL ILLINOIS

CITY           SKY/WX    TMP DP  RH WIND       PRES   REMARKS
QUINCY         PTSUNNY   80  66  62 W13G20    29.99F HX  82
GALESBURG*     MOSUNNY   83  65  55 W13G20    29.95F HX  84
MACOMB*        PTSUNNY   84  64  50 W15G22    29.99F HX  85
JACKSONVILLE*  MOSUNNY   88  65  46 W12G22    29.97F HX  90
PITTSFIELD*    SUNNY     85  67  54 SW8       29.99F HX  88
$$

ILZ028>032-037-038-041>044-048-051>054-059>061-252200-
CENTRAL ILLINOIS

CITY           SKY/WX    TMP DP  RH WIND       PRES   REMARKS
PONTIAC        CLOUDY    80  72  77 S7        29.95F HX  84
BLOOMINGTON    MOSUNNY   83  71  67 SW8       29.97F HX  87
DECATUR        CLOUDY    89  66  46 W16       29.97F HX  91
PEORIA         CLOUDY    87  67  51 W10       29.94F HX  90
LACON*         CLOUDY    87  65  47 SW13G21   29.91F HX  89
SPRINGFIELD    MOSUNNY   90  65  43 W14       29.96F HX  92
TAYLORVILLE    MOSUNNY   86  66  50 W5        29.98S HX  88
$$

ILZ033-039-045-046-055>057-062-063-252200-
EAST-CENTRAL ILLINOIS

CITY           SKY/WX    TMP DP  RH WIND       PRES   REMARKS
CHAMPAIGN      PTSUNNY   78  68  71 SE8       29.97F HX  80
RANTOUL*       MOSUNNY   88  65  46 S10       29.96F HX  89
MATTOON        MOSUNNY   86  65  49 SW12G17   29.98F HX  88
PARIS*         MOSUNNY   90  68  49 S7        29.99F HX  94
$$

ILZ079-100>102-252200-
SOUTHWEST ILLINOIS

CITY           SKY/WX    TMP DP  RH WIND       PRES   REMARKS
ALTON          MOSUNNY   88  66  48 SW9       29.99F HX  90
BELLEVILLE     MOSUNNY   88  68  51 W5        29.97F HX  91
CAHOKIA*       CLOUDY    90  65  43 W6        29.98F HX  92
SPARTA*        CLOUDY    85  71  63 SW3       30.01F HX  90
$$

ILZ064>066-069>071-074>076-080>082-084>086-088>090-092>094-252200-
SOUTH-CENTRAL ILLINOIS

CITY           SKY/WX    TMP DP  RH WIND       PRES   REMARKS
CARBONDALE     SUNNY     88  70  55 SW7       30.00F HX  93
CAIRO*         MOSUNNY   91  66  43 S3        29.99F HX  94
EFFINGHAM*     LGT RAIN  78  73  85 SW14      30.01S HX  80
MARION         MOSUNNY   90  68  48 S7        30.01F HX  93
MT. VERNON     CLOUDY    90  70  51 S6        30.00F HX  95
CENTRALIA*     MOSUNNY   89  71  54 SW7       29.99F HX  95
SALEM*         PTSUNNY   91  66  43 SW13      29.99F HX  93
METROPOLIS*    SUNNY     91  66  43 CALM      30.01F HX  94
$$

ILZ067-068-072-073-078-083-087-091-252200-
SOUTHEAST ILLINOIS

CITY           SKY/WX    TMP DP  RH WIND       PRES   REMARKS
LAWRENCEVILLE  PTSUNNY   88  66  48 SW5       30.00F HX  90
FLORA*         MOSUNNY   90  71  53 SW9       30.00F HX  96
FAIRFIELD*     MOSUNNY   88  69  54 CALM      29.99F HX  92
HARRISBURG*    MOSUNNY   89  69  50 W7        30.01F HX  93
ROBINSON*      MOSUNNY   88  68  52 SW8       30.00F HX  91
CARMI*         SUNNY     91  68  46 W8        30.00F HX  95
$$

ABBREVIATIONS USED IN REMARKS
   TC - TEMPERATURE IN CELSIUS
  WCI - WIND CHILL INDEX
   HX - HEAT INDEX
  VSB - VISIBILITY
$$





USA.gov is the U.S. government's official web portal to all federal, state and local government web resources and services.